"SCET";"TARGET";"ELECTRON_DENSITY";"ERROR_FLAG";"ELECTRON_DENSITY_ERROR";"FREQ_FCE";"MEASURED_VALUE";"MEASURED_ITEM";"FREQ_PLASMA";"FREQ_UPPER_HYBRID";"FREQ_R_EQUALS_ZERO";"FREQ_L_EQUALS_ZERO";"ORBIT_NUMBER";"SATURN_RADIUS";"SATURN_IAU_LONGITUDE";"SATURN_SLS4_S_LONGITUDE";"SATURN_SLS4_N_LONGITUDE";"SATURN_SLS5_S_LONGITUDE";"SATURN_SLS5_N_LONGITUDE";"SATURN_LOCAL_TIME";"SATURN_KRONOGRAPHIC_LATITUDE";"SATURN_MAGNETIC_LATITUDE";"SATURN_L";"SATURN_L_OFFSET";"SATURN_SOLAR_EQUATORIAL_X";"SATURN_SOLAR_EQUATORIAL_Y";"SATURN_SOLAR_EQUATORIAL_Z";"SATURN_ALTITUDE";"ENCELADUS_ENCOUNTER_NUMBER";"ENCELADUS_RADIUS";"ENCELADUS_COROTATIONAL_X";"ENCELADUS_COROTATIONAL_Y";"ENCELADUS_COROTATIONAL_Z";"ENCELADUS_TRUE_ANOMALY";"ENCELADUS_PERIAPSIS_TIME";"JUPITER_RADIUS";"JUPITER_SYSTEMIII_LONGITUDE";"JUPITER_MAGNETIC_LATITUDE";"JUPITER_MAGNETIC_LOCAL_TIME";"JUPITER_L";"IO_PHASE";"EARTH_RADIUS";"EARTH_MAGNETIC_LATITUDE";"EARTH_LOCAL_TIME";"EARTH_L"
"[UTC]";"[0=Saturn, 1=Enceladus, 2=Jupiter, 3=Earth]";"[cm-3]";"[0=automated, 1=manual]";"[normalized density error]";"[Hz]";"[Hz]";"[0=upper hybrid frequency, 1=plasma frequency cutoff]";"[Hz]";"[Hz]";"[Hz]";"[Hz}";"[0, A, B, C, 3, 4, ... , 292, 293]";"[Rs where 1Rs=60268km]";"[degrees]";"[degrees]";"[degrees]";"[degrees]";"[degrees]";"[hours]";"[degrees]";"[degrees where offset=2293km north]";"[Rs where 1Rs=60268km]";"[Rs where 1Rs=60268km and offset=2293km north]";"[Rs where 1Rs=60268km]";"[Rs where 1Rs=60268km]";"[Rs where 1Rs=60268km]";"[km where ellipsoid a,b=60268km and c=54364km]";"[E0, E1, E2, ... , E21, E22]";"[Renc where 1Renc=252.1km]";"[Renc where 1Renc=252.1km]";"[Renc where 1Renc=252.1km]";"[Renc where 1Renc=252.1km]";"[degrees]";"[UTC]";"[Rj where 1Rj=71492km]";"[degrees]";"[degrees using JRM09 model]";"[hours using JRM09 model]";"[Rj where 1Rj=71492km]";"[degrees]";"[Re where 1Re=6378.1366km]";"[degrees]";"[hours]";"[Re where 1Re=6378.1366km]"
2004-07-01T00:00:17.657Z;0;4.5340e+01;0;     0.198; 15046.473;  62308.617; 0;  60464.598;  62308.617;  68454.070;  53407.598;  0;   3.362; 342.753;;; 185.860;  73.965;  11.070;  -3.652;  -4.299;   3.375;   3.361;   3.256;  -0.809;  -0.214;;;;;;;;;;;;;;;;;;
2004-07-01T00:00:33.657Z;0;4.5630e+01;0;     0.194; 15046.473;  62495.242; 0;  60656.895;  62495.242;  68644.898;  53598.430;  0;   3.358; 342.850;;; 185.954;  74.063;  11.073;  -3.636;  -4.283;   3.371;   3.357;   3.253;  -0.805;  -0.213;;;;;;;;;;;;;;;;;;
2004-07-01T00:01:05.657Z;0;4.5920e+01;0;     0.199; 15257.256;  62734.867; 0;  60851.293;  62734.867;  68956.234;  53698.980;  0;   3.349; 343.042;;; 186.141;  74.258;  11.080;  -3.603;  -4.252;   3.362;   3.348;   3.246;  -0.797;  -0.210;;;;;;;;;;;;;;;;;;
2004-07-01T00:01:21.657Z;0;4.6120e+01;0;     0.178; 15257.256;  62862.383; 0;  60982.746;  62862.383;  69086.672;  53829.418;  0;   3.345; 343.137;;; 186.234;  74.356;  11.084;  -3.587;  -4.237;   3.358;   3.344;   3.243;  -0.793;  -0.209;;;;;;;;;;;;;;;;;;
2004-07-01T00:01:53.657Z;0;4.6130e+01;0;     0.191; 15257.256;  62870.031; 0;  60990.629;  62870.031;  69094.492;  53837.242;  0;   3.337; 343.329;;; 186.420;  74.550;  11.091;  -3.554;  -4.205;   3.350;   3.336;   3.236;  -0.785;  -0.207;;;;;;;;;;;;;;;;;;
2004-07-01T00:02:09.657Z;0;4.6040e+01;0;     0.190; 15474.956;  62865.699; 0;  60931.289;  62865.699;  69158.078;  53683.125;  0;   3.332; 343.424;;; 186.513;  74.648;  11.095;  -3.537;  -4.190;   3.345;   3.332;   3.233;  -0.781;  -0.206;;;;;;;;;;;;;;;;;;
2004-07-01T00:02:41.656Z;0;4.6350e+01;0;     0.186; 15474.956;  63065.828; 0;  61137.750;  63065.828;  69362.906;  53887.945;  0;   3.324; 343.615;;; 186.697;  74.841;  11.102;  -3.504;  -4.158;   3.337;   3.323;   3.227;  -0.773;  -0.203;;;;;;;;;;;;;;;;;;
2004-07-01T00:02:57.656Z;0;4.6590e+01;0;     0.184; 15474.956;  63216.828; 0;  61293.500;  63216.828;  69517.422;  54042.469;  0;   3.320; 343.710;;; 186.789;  74.938;  11.106;  -3.487;  -4.142;   3.332;   3.319;   3.223;  -0.768;  -0.202;;;;;;;;;;;;;;;;;;
2004-07-01T00:03:29.656Z;0;4.6500e+01;0;     0.211; 15697.780;  63217.156; 0;  61237.148;  63217.156;  69586.992;  53889.215;  0;   3.312; 343.899;;; 186.973;  75.131;  11.113;  -3.454;  -4.110;   3.324;   3.311;   3.217;  -0.760;  -0.199;;;;;;;;;;;;;;;;;;
2004-07-01T00:03:45.656Z;0;4.6910e+01;0;     0.198; 15697.780;  63479.246; 0;  61507.676;  63479.246;  69855.336;  54157.559;  0;   3.307; 343.994;;; 187.064;  75.228;  11.117;  -3.437;  -4.094;   3.319;   3.306;   3.214;  -0.756;  -0.198;;;;;;;;;;;;;;;;;;
2004-07-01T00:04:17.656Z;0;4.7610e+01;0;     0.216; 15923.517;  63973.488; 0;  61960.059;  63973.488;  70431.258;  54507.742;  0;   3.299; 344.183;;; 187.246;  75.420;  11.124;  -3.403;  -4.062;   3.311;   3.298;   3.207;  -0.748;  -0.196;;;;;;;;;;;;;;;;;;
2004-07-01T00:04:33.656Z;0;4.7270e+01;0;     0.189; 15923.517;  63763.082; 0;  61742.793;  63763.082;  70215.766;  54292.254;  0;   3.295; 344.277;;; 187.337;  75.516;  11.128;  -3.386;  -4.046;   3.306;   3.294;   3.204;  -0.744;  -0.195;;;;;;;;;;;;;;;;;;
2004-07-01T00:05:05.655Z;0;4.6980e+01;0;     0.165; 16154.852;  63636.055; 0;  61551.348;  63636.055;  70156.516;  54001.660;  0;   3.286; 344.465;;; 187.518;  75.707;  11.136;  -3.352;  -4.014;   3.298;   3.285;   3.197;  -0.736;  -0.192;;;;;;;;;;;;;;;;;;
2004-07-01T00:05:21.655Z;0;4.7010e+01;0;     0.184; 16154.852;  63656.574; 0;  61572.559;  63656.574;  70177.547;  54022.695;  0;   3.282; 344.558;;; 187.608;  75.803;  11.139;  -3.335;  -3.998;   3.293;   3.281;   3.194;  -0.732;  -0.191;;;;;;;;;;;;;;;;;;
2004-07-01T00:05:53.655Z;0;5.0500e+01;0;     0.221; 16154.852;  65826.000; 0;  63812.875;  65826.000;  72399.492;  56244.637;  0;   3.274; 344.746;;; 187.788;  75.994;  11.147;  -3.301;  -3.965;   3.285;   3.273;   3.187;  -0.724;  -0.188;;;;;;;;;;;;;;;;;;
2004-07-01T00:06:09.655Z;0;5.0510e+01;0;     0.226; 16389.633;  65889.094; 0;  63818.121;  65889.094;  72536.930;  56147.297;  0;   3.270; 344.839;;; 187.878;  76.089;  11.151;  -3.284;  -3.949;   3.280;   3.269;   3.184;  -0.720;  -0.187;;;;;;;;;;;;;;;;;;
2004-07-01T00:06:41.655Z;0;4.5920e+01;0;     0.204; 16389.633;  63018.414; 0;  60849.820;  63018.414;  69593.961;  53204.332;  0;   3.261; 345.025;;; 188.056;  76.279;  11.158;  -3.249;  -3.916;   3.272;   3.260;   3.177;  -0.712;  -0.185;;;;;;;;;;;;;;;;;;
2004-07-01T00:06:57.655Z;0;4.6540e+01;0;     0.187; 16389.633;  63418.906; 0;  61264.488;  63418.906;  70004.953;  53615.316;  0;   3.257; 345.118;;; 188.145;  76.374;  11.162;  -3.232;  -3.899;   3.267;   3.256;   3.174;  -0.707;  -0.184;;;;;;;;;;;;;;;;;;
2004-07-01T00:07:29.655Z;0;4.6770e+01;0;     0.208; 16630.348;  63624.941; 0;  61413.066;  63624.941;  70288.609;  53658.262;  0;   3.249; 345.303;;; 188.322;  76.563;  11.170;  -3.197;  -3.866;   3.259;   3.248;   3.167;  -0.699;  -0.181;;;;;;;;;;;;;;;;;;
2004-07-01T00:07:45.654Z;0;4.9060e+01;0;     0.192; 16630.348;  65060.836; 0;  62899.477;  65060.836;  71761.891;  55131.543;  0;   3.244; 345.396;;; 188.411;  76.657;  11.174;  -3.179;  -3.850;   3.254;   3.243;   3.164;  -0.695;  -0.180;;;;;;;;;;;;;;;;;;
2004-07-01T00:08:17.654Z;0;5.0690e+01;0;     0.227; 16875.377;  66125.008; 0;  63935.422;  66125.008;  72927.477;  56052.102;  0;   3.236; 345.580;;; 188.587;  76.846;  11.181;  -3.144;  -3.816;   3.246;   3.235;   3.157;  -0.687;  -0.177;;;;;;;;;;;;;;;;;;
2004-07-01T00:08:33.654Z;0;5.1020e+01;0;     0.203; 16875.377;  66326.133; 0;  64143.414;  66326.133;  73133.688;  56258.309;  0;   3.232; 345.672;;; 188.674;  76.940;  11.185;  -3.126;  -3.799;   3.242;   3.231;   3.154;  -0.683;  -0.176;;;;;;;;;;;;;;;;;;
2004-07-01T00:09:05.654Z;0;5.2450e+01;0;     0.180; 17124.100;  67251.656; 0;  65034.992;  67251.656;  74158.234;  57034.133;  0;   3.223; 345.856;;; 188.849;  77.127;  11.193;  -3.091;  -3.766;   3.233;   3.222;   3.147;  -0.675;  -0.174;;;;;;;;;;;;;;;;;;
2004-07-01T00:09:21.654Z;0;5.3740e+01;0;     0.189; 17124.100;  68018.000; 0;  65827.148;  68018.000;  74943.688;  57819.590;  0;   3.219; 345.947;;; 188.936;  77.221;  11.197;  -3.073;  -3.749;   3.229;   3.218;   3.144;  -0.671;  -0.173;;;;;;;;;;;;;;;;;;
2004-07-01T00:09:53.654Z;0;5.4540e+01;0;     0.178; 17124.100;  68495.523; 0;  66320.445;  68495.523;  75432.898;  58308.801;  0;   3.211; 346.130;;; 189.110;  77.408;  11.205;  -3.037;  -3.715;   3.220;   3.210;   3.137;  -0.663;  -0.170;;;;;;;;;;;;;;;;;;
2004-07-01T00:10:09.654Z;0;5.4680e+01;0;     0.185; 17379.068;  68637.703; 0;  66401.070;  68637.703;  75656.766;  58277.699;  0;   3.207; 346.221;;; 189.198;  77.500;  11.209;  -3.019;  -3.698;   3.216;   3.206;   3.134;  -0.659;  -0.169;;;;;;;;;;;;;;;;;;
2004-07-01T00:10:41.653Z;0;5.5320e+01;0;     0.182; 17379.068;  69016.508; 0;  66792.562;  69016.508;  76044.969;  58665.898;  0;   3.198; 346.403;;; 189.375;  77.682;  11.217;  -2.983;  -3.663;   3.207;   3.197;   3.127;  -0.650;  -0.166;;;;;;;;;;;;;;;;;;
2004-07-01T00:10:57.653Z;0;5.5450e+01;0;     0.184; 17379.068;  69091.414; 0;  66869.961;  69091.414;  76121.719;  58742.648;  0;   3.194; 346.494;;; 189.464;  77.773;  11.221;  -2.965;  -3.646;   3.203;   3.193;   3.124;  -0.646;  -0.165;;;;;;;;;;;;;;;;;;
2004-07-01T00:11:29.653Z;0;5.5540e+01;0;     0.189; 17638.152;  69207.812; 0;  66922.469;  69207.812;  76320.133;  58681.984;  0;   3.186; 346.674;;; 189.641;  77.954;  11.229;  -2.929;  -3.612;   3.194;   3.185;   3.117;  -0.638;  -0.163;;;;;;;;;;;;;;;;;;
2004-07-01T00:11:45.653Z;0;5.5900e+01;0;     0.187; 17638.152;  69415.867; 0;  67137.609;  69415.867;  76533.438;  58895.281;  0;   3.181; 346.765;;; 189.729;  78.044;  11.233;  -2.911;  -3.594;   3.190;   3.180;   3.113;  -0.634;  -0.162;;;;;;;;;;;;;;;;;;
2004-07-01T00:12:17.653Z;0;5.9150e+01;0;     0.219; 17903.312;  71347.398; 0;  69064.625;  71347.398;  78593.992;  60690.680;  0;   3.173; 346.944;;; 189.906;  78.223;  11.241;  -2.874;  -3.559;   3.181;   3.172;   3.107;  -0.626;  -0.159;;;;;;;;;;;;;;;;;;
2004-07-01T00:12:33.653Z;0;5.8890e+01;0;     0.210; 17903.312;  71199.773; 0;  68912.109;  71199.773;  78442.742;  60539.434;  0;   3.169; 347.034;;; 189.994;  78.313;  11.245;  -2.855;  -3.542;   3.177;   3.168;   3.103;  -0.622;  -0.158;;;;;;;;;;;;;;;;;;
2004-07-01T00:13:05.652Z;0;6.2210e+01;0;     0.204; 18171.355;  73124.062; 0;  70830.289;  73124.062;  80496.320;  62324.965;  0;   3.160; 347.213;;; 190.170;  78.491;  11.253;  -2.818;  -3.507;   3.168;   3.159;   3.096;  -0.614;  -0.155;;;;;;;;;;;;;;;;;;
2004-07-01T00:13:21.652Z;0;6.2990e+01;0;     0.196; 18171.355;  73550.406; 0;  71270.359;  73550.406;  80932.836;  62761.477;  0;   3.156; 347.302;;; 190.257;  78.580;  11.257;  -2.800;  -3.489;   3.164;   3.155;   3.093;  -0.609;  -0.154;;;;;;;;;;;;;;;;;;
2004-07-01T00:13:53.652Z;0;6.5600e+01;0;     0.192; 18171.355;  74967.422; 0;  72731.812;  74967.422;  82382.781;  64211.430;  0;   3.148; 347.480;;; 190.433;  78.757;  11.265;  -2.763;  -3.454;   3.155;   3.147;   3.086;  -0.601;  -0.152;;;;;;;;;;;;;;;;;;
2004-07-01T00:14:09.652Z;0;6.6190e+01;0;     0.187; 18448.641;  75354.211; 0;  73060.969;  75354.211;  82865.289;  64416.652;  0;   3.144; 347.569;;; 190.520;  78.845;  11.269;  -2.744;  -3.436;   3.151;   3.142;   3.083;  -0.597;  -0.150;;;;;;;;;;;;;;;;;;
2004-07-01T00:14:41.652Z;0;6.5140e+01;0;     0.190; 18448.641;  74788.570; 0;  72477.430;  74788.570;  82286.391;  63837.750;  0;   3.135; 347.746;;; 190.695;  79.020;  11.277;  -2.706;  -3.400;   3.142;   3.134;   3.076;  -0.589;  -0.148;;;;;;;;;;;;;;;;;;
2004-07-01T00:14:57.652Z;0;6.5170e+01;0;     0.194; 18448.641;  74805.078; 0;  72494.461;  74805.078;  82303.289;  63854.648;  0;   3.131; 347.834;;; 190.783;  79.108;  11.281;  -2.687;  -3.382;   3.138;   3.130;   3.072;  -0.585;  -0.147;;;;;;;;;;;;;;;;;;
2004-07-01T00:15:29.651Z;0;6.0840e+01;0;     0.214; 18731.160;  72504.547; 0;  70043.219;  72504.547;  80032.172;  61301.012;  0;   3.123; 348.010;;; 190.957;  79.282;  11.290;  -2.649;  -3.346;   3.129;   3.121;   3.065;  -0.577;  -0.144;;;;;;;;;;;;;;;;;;
2004-07-01T00:15:45.651Z;0;6.0860e+01;0;     0.226; 18731.160;  72516.094; 0;  70055.172;  72516.094;  80044.016;  61312.859;  0;   3.118; 348.098;;; 191.044;  79.368;  11.294;  -2.630;  -3.328;   3.125;   3.117;   3.062;  -0.573;  -0.143;;;;;;;;;;;;;;;;;;
2004-07-01T00:16:17.651Z;0;5.6550e+01;0;     0.204; 19021.295;  70154.766; 0;  67526.891;  70154.766;  77704.008;  58682.711;  0;   3.110; 348.273;;; 191.218;  79.541;  11.302;  -2.592;  -3.292;   3.116;   3.109;   3.055;  -0.564;  -0.141;;;;;;;;;;;;;;;;;;
2004-07-01T00:16:33.651Z;0;5.5420e+01;0;     0.220; 19021.295;  69503.352; 0;  66849.875;  69503.352;  77033.672;  58012.375;  0;   3.106; 348.360;;; 191.305;  79.627;  11.306;  -2.573;  -3.273;   3.112;   3.104;   3.052;  -0.560;  -0.139;;;;;;;;;;;;;;;;;;
2004-07-01T00:17:05.651Z;0;5.2630e+01;0;     0.221; 19316.164;  67948.250; 0;  65144.844;  67948.250;  75514.961;  56198.801;  0;   3.097; 348.534;;; 191.478;  79.799;  11.315;  -2.534;  -3.237;   3.103;   3.096;   3.045;  -0.552;  -0.137;;;;;;;;;;;;;;;;;;
2004-07-01T00:17:21.651Z;0;5.0990e+01;0;     0.217; 19316.164;  66968.383; 0;  64122.148;  66968.383;  74503.500;  55187.340;  0;   3.093; 348.621;;; 191.565;  79.884;  11.319;  -2.515;  -3.218;   3.099;   3.092;   3.041;  -0.548;  -0.136;;;;;;;;;;;;;;;;;;
2004-07-01T00:17:53.650Z;0;4.9880e+01;0;     0.201; 19316.164;  66298.797; 0;  63422.523;  66298.797;  73811.766;  54495.602;  0;   3.085; 348.794;;; 191.738;  80.054;  11.327;  -2.476;  -3.181;   3.090;   3.083;   3.034;  -0.540;  -0.133;;;;;;;;;;;;;;;;;;
2004-07-01T00:18:09.650Z;0;5.1000e+01;0;     0.212; 19616.492;  67062.969; 0;  64129.828;  67062.969;  74683.797;  55067.301;  0;   3.080; 348.880;;; 191.824;  80.139;  11.332;  -2.456;  -3.163;   3.086;   3.079;   3.031;  -0.536;  -0.132;;;;;;;;;;;;;;;;;;
2004-07-01T00:18:41.650Z;0;5.1510e+01;0;     0.202; 19616.492;  67370.492; 0;  64451.352;  67370.492;  75001.633;  55385.145;  0;   3.072; 349.052;;; 191.997;  80.308;  11.340;  -2.417;  -3.125;   3.077;   3.071;   3.024;  -0.527;  -0.129;;;;;;;;;;;;;;;;;;
2004-07-01T00:18:57.650Z;0;5.2400e+01;0;     0.202; 19616.492;  67901.102; 0;  65005.789;  67901.102;  75549.820;  55933.328;  0;   3.068; 349.138;;; 192.083;  80.392;  11.345;  -2.397;  -3.107;   3.073;   3.066;   3.020;  -0.523;  -0.128;;;;;;;;;;;;;;;;;;
2004-07-01T00:19:29.650Z;0;5.3820e+01;0;     0.186; 19922.504;  68825.922; 0;  65879.445;  68825.922;  76589.531;  56667.031;  0;   3.059; 349.309;;; 192.255;  80.560;  11.353;  -2.357;  -3.069;   3.064;   3.058;   3.013;  -0.515;  -0.126;;;;;;;;;;;;;;;;;;
2004-07-01T00:19:45.650Z;0;5.4820e+01;0;     0.211; 19922.504;  69411.758; 0;  66491.250;  69411.758;  77194.523;  57272.016;  0;   3.055; 349.394;;; 192.341;  80.643;  11.358;  -2.338;  -3.050;   3.060;   3.054;   3.009;  -0.511;  -0.125;;;;;;;;;;;;;;;;;;
2004-07-01T00:20:17.650Z;0;5.5060e+01;0;     0.195; 20235.348;  69637.711; 0;  66632.883;  69637.711;  77514.328;  57278.980;  0;   3.047; 349.564;;; 192.510;  80.812;  11.366;  -2.298;  -3.012;   3.051;   3.045;   3.002;  -0.503;  -0.122;;;;;;;;;;;;;;;;;;
2004-07-01T00:20:33.649Z;0;5.4910e+01;0;     0.191; 20235.348;  69550.430; 0;  66541.664;  69550.430;  77424.141;  57188.793;  0;   3.042; 349.648;;; 192.594;  80.897;  11.371;  -2.277;  -2.993;   3.047;   3.041;   2.999;  -0.499;  -0.121;;;;;;;;;;;;;;;;;;
2004-07-01T00:21:05.649Z;0;5.4420e+01;0;     0.208; 20553.373;  69359.078; 0;  66243.797;  69359.078;  77312.875;  56759.504;  0;   3.034; 349.817;;; 192.760;  81.066;  11.379;  -2.237;  -2.955;   3.039;   3.033;   2.992;  -0.490;  -0.118;;;;;;;;;;;;;;;;;;
2004-07-01T00:21:21.649Z;0;5.5230e+01;0;     0.208; 20553.373;  69829.562; 0;  66736.250;  69829.562;  77799.547;  57246.176;  0;   3.030; 349.901;;; 192.843;  81.151;  11.384;  -2.217;  -2.935;   3.034;   3.028;   2.988;  -0.486;  -0.117;;;;;;;;;;;;;;;;;;
2004-07-01T00:21:53.649Z;0;5.8070e+01;0;     0.224; 20553.373;  71448.688; 0;  68428.602;  71448.688;  79472.672;  58919.297;  0;   3.021; 350.069;;; 193.009;  81.320;  11.393;  -2.176;  -2.897;   3.026;   3.020;   2.981;  -0.478;  -0.115;;;;;;;;;;;;;;;;;;
2004-07-01T00:22:09.649Z;0;5.9150e+01;0;     0.222; 20879.516;  72151.766; 0;  69064.633;  72151.766;  80288.961;  59409.449;  0;   3.017; 350.152;;; 193.092;  81.405;  11.397;  -2.156;  -2.877;   3.021;   3.016;   2.977;  -0.474;  -0.113;;;;;;;;;;;;;;;;;;
2004-07-01T00:22:41.649Z;0;6.2230e+01;0;     0.209; 20879.516;  73850.320; 0;  70837.250;  73850.320;  82042.164;  61162.645;  0;   3.009; 350.319;;; 193.256;  81.573;  11.406;  -2.115;  -2.838;   3.013;   3.007;   2.970;  -0.466;  -0.111;;;;;;;;;;;;;;;;;;
2004-07-01T00:22:57.649Z;0;5.8320e+01;0;     0.223; 20879.516;  71688.008; 0;  68580.000;  71688.008;  79809.812;  58930.297;  0;   3.004; 350.402;;; 193.338;  81.658;  11.410;  -2.094;  -2.819;   3.008;   3.003;   2.967;  -0.461;  -0.110;;;;;;;;;;;;;;;;;;
2004-07-01T00:23:29.648Z;0;5.7600e+01;0;     0.220; 21212.744;  71379.203; 0;  68154.312;  71379.203;  79581.047;  58368.297;  0;   2.996; 350.567;;; 193.502;  81.825;  11.419;  -2.053;  -2.779;   3.000;   2.994;   2.959;  -0.453;  -0.107;;;;;;;;;;;;;;;;;;
2004-07-01T00:23:45.648Z;0;5.7220e+01;0;     0.235; 21212.744;  71165.766; 0;  67930.742;  71165.766;  79360.141;  58147.398;  0;   2.992; 350.650;;; 193.583;  81.909;  11.424;  -2.032;  -2.760;   2.995;   2.990;   2.956;  -0.449;  -0.106;;;;;;;;;;;;;;;;;;
2004-07-01T00:24:17.648Z;0;5.8510e+01;0;     0.201; 21553.197;  71990.438; 0;  68688.305;  71990.438;  80305.141;  58751.941;  0;   2.983; 350.814;;; 193.746;  82.076;  11.433;  -1.990;  -2.720;   2.987;   2.982;   2.949;  -0.441;  -0.104;;;;;;;;;;;;;;;;;;
2004-07-01T00:24:33.648Z;0;6.0830e+01;0;     0.203; 21553.197;  73281.109; 0;  70039.852;  73281.109;  81640.664;  60087.469;  0;   2.979; 350.896;;; 193.827;  82.160;  11.438;  -1.969;  -2.700;   2.982;   2.977;   2.945;  -0.437;  -0.102;;;;;;;;;;;;;;;;;;
2004-07-01T00:25:05.648Z;0;6.4420e+01;0;     0.200; 21901.039;  75327.383; 0;  72073.289;  75327.383;  83850.953;  61949.910;  0;   2.970; 351.059;;; 193.988;  82.327;  11.447;  -1.927;  -2.660;   2.974;   2.969;   2.938;  -0.428;  -0.100;;;;;;;;;;;;;;;;;;
2004-07-01T00:25:21.648Z;0;6.4180e+01;0;     0.212; 21901.039;  75200.977; 0;  71941.164;  75200.977;  83720.328;  61819.289;  0;   2.966; 351.140;;; 194.069;  82.410;  11.451;  -1.906;  -2.640;   2.970;   2.965;   2.934;  -0.424;  -0.099;;;;;;;;;;;;;;;;;;
2004-07-01T00:25:53.647Z;0;6.0630e+01;0;     0.203; 21901.039;  73272.203; 0;  69922.531;  73272.203;  81725.336;  59824.293;  0;   2.958; 351.302;;; 194.229;  82.576;  11.461;  -1.863;  -2.599;   2.961;   2.956;   2.927;  -0.416;  -0.096;;;;;;;;;;;;;;;;;;
2004-07-01T00:26:09.647Z;0;6.2000e+01;0;     0.197; 22256.473;  74128.516; 0;  70708.461;  74128.516;  82707.031;  60450.559;  0;   2.954; 351.383;;; 194.309;  82.658;  11.465;  -1.842;  -2.579;   2.957;   2.952;   2.923;  -0.412;  -0.095;;;;;;;;;;;;;;;;;;
2004-07-01T00:26:41.647Z;0;6.1710e+01;0;     0.198; 22256.473;  73970.023; 0;  70542.281;  73970.023;  82542.883;  60286.406;  0;   2.945; 351.544;;; 194.468;  82.824;  11.474;  -1.799;  -2.538;   2.948;   2.944;   2.916;  -0.404;  -0.092;;;;;;;;;;;;;;;;;;
2004-07-01T00:26:57.647Z;0;6.2270e+01;0;     0.201; 22256.473;  74274.516; 0;  70861.508;  74274.516;  82858.219;  60601.750;  0;   2.941; 351.624;;; 194.547;  82.906;  11.479;  -1.777;  -2.518;   2.944;   2.939;   2.912;  -0.399;  -0.091;;;;;;;;;;;;;;;;;;
2004-07-01T00:27:29.647Z;0;6.1890e+01;0;     0.225; 22619.043;  74177.945; 0;  70645.219;  74177.945;  82854.273;  60235.230;  0;   2.932; 351.783;;; 194.705;  83.071;  11.489;  -1.734;  -2.476;   2.935;   2.931;   2.905;  -0.391;  -0.089;;;;;;;;;;;;;;;;;;
2004-07-01T00:27:45.647Z;0;6.3580e+01;0;     0.196; 22619.043;  75091.945; 0;  71604.320;  75091.945;  83801.484;  61182.438;  0;   2.928; 351.863;;; 194.784;  83.153;  11.493;  -1.712;  -2.456;   2.931;   2.927;   2.901;  -0.387;  -0.087;;;;;;;;;;;;;;;;;;
2004-07-01T00:28:17.646Z;0;5.7930e+01;0;     0.251; 22991.219;  72111.008; 0;  68347.648;  72111.008;  80803.258;  57812.039;  0;   2.920; 352.021;;; 194.941;  83.317;  11.503;  -1.668;  -2.414;   2.922;   2.918;   2.894;  -0.379;  -0.085;;;;;;;;;;;;;;;;;;
2004-07-01T00:28:33.646Z;0;5.7350e+01;0;     0.229; 22991.219;  71785.281; 0;  68003.898;  71785.281;  80464.297;  57473.074;  0;   2.915; 352.100;;; 195.020;  83.399;  11.507;  -1.647;  -2.393;   2.918;   2.914;   2.890;  -0.375;  -0.084;;;;;;;;;;;;;;;;;;
2004-07-01T00:29:05.646Z;0;5.7230e+01;0;     0.249; 23369.836;  71843.141; 0;  67935.906;  71843.141;  80618.398;  57248.562;  0;   2.907; 352.257;;; 195.176;  83.562;  11.517;  -1.602;  -2.352;   2.909;   2.905;   2.883;  -0.366;  -0.081;;;;;;;;;;;;;;;;;;
2004-07-01T00:29:21.646Z;0;5.6960e+01;0;     0.240; 23369.836;  71691.906; 0;  67775.953;  71691.906;  80460.766;  57090.930;  0;   2.903; 352.335;;; 195.253;  83.644;  11.522;  -1.580;  -2.330;   2.905;   2.901;   2.879;  -0.362;  -0.080;;;;;;;;;;;;;;;;;;
2004-07-01T00:29:53.646Z;0;5.6890e+01;0;     0.232; 23369.836;  71648.422; 0;  67729.961;  71648.422;  80415.438;  57045.602;  0;   2.894; 352.491;;; 195.408;  83.807;  11.531;  -1.536;  -2.288;   2.896;   2.893;   2.872;  -0.354;  -0.078;;;;;;;;;;;;;;;;;;
2004-07-01T00:30:09.646Z;0;5.3070e+01;0;     0.198; 23759.176;  69599.602; 0;  65418.699;  69599.602;  78368.164;  54608.988;  0;   2.890; 352.569;;; 195.484;  83.887;  11.536;  -1.513;  -2.267;   2.892;   2.888;   2.868;  -0.350;  -0.076;;;;;;;;;;;;;;;;;;
2004-07-01T00:30:41.645Z;0;6.0590e+01;0;     0.260; 23759.176;  73826.500; 0;  69898.883;  73826.500;  82780.773;  59021.598;  0;   2.882; 352.723;;; 195.634;  84.045;  11.546;  -1.468;  -2.224;   2.883;   2.880;   2.860;  -0.341;  -0.074;;;;;;;;;;;;;;;;;;
2004-07-01T00:30:57.645Z;0;6.0770e+01;0;     0.265; 23759.176;  73926.008; 0;  70003.977;  73926.008;  82884.383;  59125.207;  0;   2.877; 352.800;;; 195.708;  84.123;  11.551;  -1.446;  -2.203;   2.879;   2.876;   2.857;  -0.337;  -0.073;;;;;;;;;;;;;;;;;;
2004-07-01T00:31:29.645Z;0;5.5020e+01;0;     0.312; 24155.039;  70855.266; 0;  66610.828;  70855.266;  79774.414;  55619.371;  0;   2.869; 352.954;;; 195.856;  84.280;  11.561;  -1.401;  -2.160;   2.871;   2.867;   2.849;  -0.329;  -0.070;;;;;;;;;;;;;;;;;;
2004-07-01T00:31:45.645Z;0;6.2040e+01;0;     0.233; 24155.039;  74741.508; 0;  70730.664;  74741.508;  83831.914;  59676.879;  0;   2.865; 353.030;;; 195.930;  84.358;  11.566;  -1.378;  -2.138;   2.866;   2.863;   2.845;  -0.325;  -0.069;;;;;;;;;;;;;;;;;;
2004-07-01T00:32:17.645Z;0;6.1330e+01;0;     0.208; 24559.947;  74493.273; 0;  70328.211;  74493.273;  83672.234;  59112.285;  0;   2.856; 353.182;;; 196.076;  84.513;  11.575;  -1.332;  -2.095;   2.858;   2.854;   2.838;  -0.317;  -0.066;;;;;;;;;;;;;;;;;;
2004-07-01T00:32:33.645Z;0;6.1960e+01;0;     0.228; 24559.947;  74830.039; 0;  70684.820;  74830.039;  84023.555;  59463.609;  0;   2.852; 353.258;;; 196.149;  84.591;  11.580;  -1.309;  -2.073;   2.853;   2.850;   2.834;  -0.312;  -0.065;;;;;;;;;;;;;;;;;;
2004-07-01T00:33:05.645Z;0;6.2830e+01;0;     0.289; 24975.215;  75434.781; 0;  71180.367;  75434.781;  84755.062;  59779.848;  0;   2.843; 353.408;;; 196.293;  84.745;  11.590;  -1.263;  -2.029;   2.845;   2.842;   2.826;  -0.304;  -0.063;;;;;;;;;;;;;;;;;;
2004-07-01T00:33:21.644Z;0;6.9750e+01;0;     0.253; 24975.215;  79044.719; 0;  74995.375;  79044.719;  88515.539;  63540.324;  0;   2.839; 353.484;;; 196.365;  84.821;  11.595;  -1.240;  -2.007;   2.841;   2.837;   2.823;  -0.300;  -0.061;;;;;;;;;;;;;;;;;;
2004-07-01T00:33:53.644Z;0;6.3680e+01;0;     0.267; 24975.215;  75889.219; 0;  71661.789;  75889.219;  85229.289;  60254.074;  0;   2.831; 353.633;;; 196.508;  84.974;  11.605;  -1.193;  -1.963;   2.832;   2.829;   2.815;  -0.292;  -0.059;;;;;;;;;;;;;;;;;;